Voltar ao catálogo

STARLINK-33980

AtivoComunicaçõesVLEO
NORAD 63930·PAYLOAD·🇺🇸 United States

Lançado May 13, 2025 de Vandenberg Space Force Base

Loading…

Próximas Passagens (próximas 24 horas)

TLE

AtualizadoSource: CelesTrak SupGP

Época: Sep 14, 2026, 23:12 UTC

1 63930C 25098E   26257.96715278 -.00030023  00000+0 -10443-2 0  2572
2 63930  70.0004 155.6589 0003274 272.4980  91.7850 15.29596665    16

Acompanhe STARLINK-33980 em tempo real com AllMySat

Download on the App Store